Time,TemperatureF,DewpointF,PressureIn,WindDirection,WindDirectionDegrees,WindSpeedMPH,WindSpeedGustMPH,Humidity,HourlyPrecipIn,Conditions,Clouds,dailyrainin,SoftwareType,DateUTC
2013-06-22 00:01:00,72.0,65.5,29.98,SW,225,0.0,1.6,80,0.00,,,0.00,WUHU21623XXSP,2013-06-22 05:01:00,
2013-06-22 00:06:00,71.8,65.3,29.98,South,180,0.0,0.0,80,0.00,,,0.00,WUHU21623XXSP,2013-06-22 05:06:00,
2013-06-22 00:11:00,71.8,65.3,29.98,SSW,202,0.0,0.0,80,0.00,,,0.00,WUHU21623XXSP,2013-06-22 05:11:00,
2013-06-22 00:16:00,72.0,65.8,29.98,South,180,0.9,0.9,81,0.00,,,0.00,WUHU21623XXSP,2013-06-22 05:16:00,
2013-06-22 00:21:00,72.0,65.8,29.97,SSE,157,0.0,0.9,81,0.00,,,0.00,WUHU21623XXSP,2013-06-22 05:21:00,
2013-06-22 00:26:00,72.0,65.8,29.98,SSE,157,0.0,0.0,81,0.00,,,0.00,WUHU21623XXSP,2013-06-22 05:26:00,
2013-06-22 00:31:00,72.0,65.8,29.98,SSE,157,0.0,0.0,81,0.00,,,0.00,WUHU21623XXSP,2013-06-22 05:31:00,
2013-06-22 00:36:00,72.0,65.8,29.97,South,180,0.0,2.0,81,0.00,,,0.00,WUHU21623XXSP,2013-06-22 05:36:00,
2013-06-22 00:41:00,72.0,65.8,29.97,South,180,0.0,2.0,81,0.00,,,0.00,WUHU21623XXSP,2013-06-22 05:41:00,
2013-06-22 00:46:00,72.0,65.8,29.97,South,180,0.0,0.0,81,0.00,,,0.00,WUHU21623XXSP,2013-06-22 05:46:00,
2013-06-22 00:51:00,72.0,66.2,29.97,SSW,202,0.0,0.0,82,0.00,,,0.00,WUHU21623XXSP,2013-06-22 05:51:00,
2013-06-22 00:56:00,71.8,66.0,29.97,SSE,157,0.0,0.0,82,0.00,,,0.00,WUHU21623XXSP,2013-06-22 05:56:00,
2013-06-22 01:01:00,71.8,66.0,29.96,SSW,202,2.9,2.9,82,0.00,,,0.00,WUHU21623XXSP,2013-06-22 06:01:00,
2013-06-22 01:06:00,71.8,66.0,29.96,SSW,202,2.9,2.9,82,0.00,,,0.00,WUHU21623XXSP,2013-06-22 06:06:00,
2013-06-22 01:11:00,71.8,66.3,29.95,SSE,157,0.0,2.9,83,0.00,,,0.00,WUHU21623XXSP,2013-06-22 06:11:00,
2013-06-22 01:16:00,71.8,66.3,29.95,SSE,157,0.0,1.3,83,0.00,,,0.00,WUHU21623XXSP,2013-06-22 06:16:00,
2013-06-22 01:21:00,72.0,66.5,29.95,SSE,157,0.0,0.0,83,0.00,,,0.00,WUHU21623XXSP,2013-06-22 06:21:00,
2013-06-22 01:26:00,72.0,66.5,29.95,South,180,1.1,1.1,83,0.00,,,0.00,WUHU21623XXSP,2013-06-22 06:26:00,
2013-06-22 01:31:00,72.1,67.0,29.94,South,180,0.0,1.1,84,0.00,,,0.00,WUHU21623XXSP,2013-06-22 06:31:00,
2013-06-22 01:36:00,72.1,67.0,29.94,SSW,202,0.0,0.0,84,0.00,,,0.00,WUHU21623XXSP,2013-06-22 06:36:00,
2013-06-22 01:41:00,72.5,67.4,29.94,South,180,1.1,2.7,84,0.00,,,0.00,WUHU21623XXSP,2013-06-22 06:41:00,
2013-06-22 01:46:00,72.3,67.2,29.94,SSE,157,0.0,2.7,84,0.00,,,0.00,WUHU21623XXSP,2013-06-22 06:46:00,
2013-06-22 01:51:00,72.5,66.7,29.95,SE,135,0.0,0.0,82,0.00,,,0.00,WUHU21623XXSP,2013-06-22 06:51:00,
2013-06-22 01:56:00,72.5,66.7,29.95,SE,135,0.0,0.0,82,0.00,,,0.00,WUHU21623XXSP,2013-06-22 06:56:00,
2013-06-22 02:01:00,72.5,66.7,29.95,ESE,112,0.0,0.0,82,0.00,,,0.00,WUHU21623XXSP,2013-06-22 07:01:00,
2013-06-22 02:06:00,72.7,67.2,29.95,SE,135,0.0,0.0,83,0.00,,,0.00,WUHU21623XXSP,2013-06-22 07:06:00,
2013-06-22 02:11:00,72.5,67.0,29.96,WSW,247,0.0,1.6,83,0.00,,,0.00,WUHU21623XXSP,2013-06-22 07:11:00,
2013-06-22 02:16:00,72.7,67.2,29.96,SSE,157,0.4,1.6,83,0.00,,,0.00,WUHU21623XXSP,2013-06-22 07:16:00,
2013-06-22 02:21:00,72.7,67.2,29.97,ESE,112,2.7,2.7,83,0.00,,,0.00,WUHU21623XXSP,2013-06-22 07:21:00,
2013-06-22 02:26:00,72.9,67.4,29.98,NNE,22,1.3,2.7,83,0.00,,,0.00,WUHU21623XXSP,2013-06-22 07:26:00,
2013-06-22 02:31:00,72.9,67.4,29.99,East,90,1.8,1.8,83,0.00,,,0.00,WUHU21623XXSP,2013-06-22 07:31:00,
2013-06-22 02:36:00,72.9,67.4,29.99,ENE,67,1.3,1.8,83,0.00,,,0.00,WUHU21623XXSP,2013-06-22 07:36:00,
2013-06-22 02:41:00,72.9,67.4,29.99,SE,135,0.0,2.5,83,0.00,,,0.00,WUHU21623XXSP,2013-06-22 07:41:00,
2013-06-22 02:46:00,73.0,67.6,29.99,ESE,112,2.5,2.5,83,0.00,,,0.00,WUHU21623XXSP,2013-06-22 07:46:00,
2013-06-22 02:51:00,73.2,67.8,29.98,SE,135,1.8,2.5,83,0.00,,,0.00,WUHU21623XXSP,2013-06-22 07:51:00,
2013-06-22 02:56:00,73.6,68.1,29.99,SW,225,0.0,2.2,83,0.00,,,0.00,WUHU21623XXSP,2013-06-22 07:56:00,
2013-06-22 03:01:00,74.1,68.7,30.00,East,90,3.1,3.1,83,0.00,,,0.00,WUHU21623XXSP,2013-06-22 08:01:00,
2013-06-22 03:06:00,73.8,67.3,30.00,ESE,112,2.9,3.1,80,0.00,,,0.00,WUHU21623XXSP,2013-06-22 08:06:00,
2013-06-22 03:11:00,73.2,65.2,30.00,WSW,247,0.0,3.1,76,0.00,,,0.00,WUHU21623XXSP,2013-06-22 08:11:00,
2013-06-22 03:16:00,72.5,63.8,30.01,ENE,67,2.2,2.5,74,0.00,,,0.00,WUHU21623XXSP,2013-06-22 08:16:00,
2013-06-22 03:20:00,72.0,63.6,30.01,ESE,112,4.3,4.3,75,0.00,,,0.00,WUHU21623XXSP,2013-06-22 08:20:00,
2013-06-22 03:25:00,71.8,63.0,30.02,NNE,22,2.0,5.1,74,0.00,,,0.00,WUHU21623XXSP,2013-06-22 08:25:00,
2013-06-22 03:30:00,71.2,62.1,30.02,NNE,22,1.6,5.1,73,0.00,,,0.00,WUHU21623XXSP,2013-06-22 08:30:00,
2013-06-22 03:35:00,71.1,61.9,30.02,NNE,22,1.6,4.3,73,0.00,,,0.00,WUHU21623XXSP,2013-06-22 08:35:00,
2013-06-22 03:40:00,71.1,61.9,30.03,NNE,22,5.4,5.4,73,0.00,,,0.00,WUHU21623XXSP,2013-06-22 08:40:00,
2013-06-22 03:45:00,70.7,61.6,30.03,WSW,247,0.0,5.4,73,0.00,,,0.00,WUHU21623XXSP,2013-06-22 08:45:00,
2013-06-22 03:50:00,70.5,61.8,30.04,East,90,0.0,2.7,74,0.00,,,0.00,WUHU21623XXSP,2013-06-22 08:50:00,
2013-06-22 03:55:00,70.5,62.2,30.04,ENE,67,0.7,0.7,75,0.00,,,0.00,WUHU21623XXSP,2013-06-22 08:55:00,
2013-06-22 04:00:00,70.2,61.8,30.02,East,90,3.8,6.7,75,0.00,,,0.00,WUHU21623XXSP,2013-06-22 09:00:00,
2013-06-22 04:05:00,70.2,61.8,30.04,East,90,0.0,6.7,75,0.00,,,0.00,WUHU21623XXSP,2013-06-22 09:05:00,
2013-06-22 04:10:00,70.0,61.6,30.04,West,270,0.0,2.0,75,0.00,,,0.00,WUHU21623XXSP,2013-06-22 09:10:00,
2013-06-22 04:15:00,70.0,62.0,30.05,West,270,0.0,1.1,76,0.00,,,0.00,WUHU21623XXSP,2013-06-22 09:15:00,
2013-06-22 04:20:00,69.8,61.8,30.06,ENE,67,0.0,1.1,76,0.00,,,0.00,WUHU21623XXSP,2013-06-22 09:20:00,
2013-06-22 04:25:00,69.4,61.9,30.06,SE,135,1.8,1.8,77,0.00,,,0.00,WUHU21623XXSP,2013-06-22 09:25:00,
2013-06-22 04:30:00,68.9,62.1,30.05,NE,45,1.1,1.8,78,0.27,,,0.27,WUHU21623XXSP,2013-06-22 09:30:00,
2013-06-22 04:35:00,68.7,62.0,30.06,ESE,112,3.1,5.1,79,0.39,,,0.39,WUHU21623XXSP,2013-06-22 09:35:00,
2013-06-22 04:40:00,68.4,62.0,30.05,NNE,22,5.6,5.6,80,0.61,,,0.61,WUHU21623XXSP,2013-06-22 09:40:00,
2013-06-22 04:45:00,68.2,62.5,30.08,North,0,4.9,7.4,82,0.86,,,0.86,WUHU21623XXSP,2013-06-22 09:45:00,
2013-06-22 04:50:00,68.2,62.8,30.08,ENE,67,4.9,7.4,83,0.90,,,0.90,WUHU21623XXSP,2013-06-22 09:50:00,
2013-06-22 04:55:00,67.8,62.5,30.07,NNE,22,2.9,6.3,83,1.00,,,1.00,WUHU21623XXSP,2013-06-22 09:55:00,
2013-06-22 05:00:00,67.5,62.5,30.04,ENE,67,1.3,6.3,84,1.17,,,1.17,WUHU21623XXSP,2013-06-22 10:00:00,
2013-06-22 05:05:00,67.5,62.8,30.04,NNE,22,2.7,5.8,85,1.47,,,1.47,WUHU21623XXSP,2013-06-22 10:05:00,
2013-06-22 05:10:00,67.3,62.9,30.05,South,180,0.0,2.7,86,1.63,,,1.63,WUHU21623XXSP,2013-06-22 10:10:00,
2013-06-22 05:15:00,67.1,62.7,30.06,East,90,0.0,2.9,86,1.76,,,1.76,WUHU21623XXSP,2013-06-22 10:15:00,
2013-06-22 05:20:00,67.1,63.1,30.07,SE,135,0.0,2.9,87,1.76,,,1.76,WUHU21623XXSP,2013-06-22 10:20:00,
2013-06-22 05:25:00,67.1,63.4,30.08,SSW,202,0.0,1.8,88,1.65,,,1.82,WUHU21623XXSP,2013-06-22 10:25:00,
2013-06-22 05:30:00,67.5,63.8,30.08,East,90,0.0,8.3,88,1.57,,,1.84,WUHU21623XXSP,2013-06-22 10:30:00,
2013-06-22 05:35:00,67.5,63.8,30.08,ENE,67,0.0,8.3,88,1.39,,,1.86,WUHU21623XXSP,2013-06-22 10:35:00,
2013-06-22 05:40:00,67.5,64.1,30.09,SE,135,1.6,1.6,89,1.08,,,1.90,WUHU21623XXSP,2013-06-22 10:40:00,
2013-06-22 05:45:00,67.6,64.3,30.09,East,90,5.6,5.6,89,1.04,,,1.94,WUHU21623XXSP,2013-06-22 10:45:00,
2013-06-22 05:50:00,67.5,64.1,30.08,ESE,112,6.3,6.3,89,1.02,,,1.98,WUHU21623XXSP,2013-06-22 10:50:00,
2013-06-22 05:55:00,67.5,64.1,30.09,North,0,0.2,6.3,89,0.83,,,2.00,WUHU21623XXSP,2013-06-22 10:55:00,
2013-06-22 06:00:00,67.5,64.1,30.10,East,90,0.0,0.2,89,0.65,,,2.02,WUHU21623XXSP,2013-06-22 11:00:00,
2013-06-22 06:05:00,67.6,64.3,30.09,ENE,67,0.4,0.4,89,0.45,,,2.02,WUHU21623XXSP,2013-06-22 11:05:00,
2013-06-22 06:10:00,67.6,64.3,30.09,East,90,0.0,0.4,89,0.30,,,2.04,WUHU21623XXSP,2013-06-22 11:10:00,
2013-06-22 06:15:00,67.6,64.3,30.09,East,90,0.0,0.9,89,0.32,,,2.08,WUHU21623XXSP,2013-06-22 11:15:00,
2013-06-22 06:20:00,67.6,64.3,30.09,NE,45,3.4,3.6,89,0.32,,,2.08,WUHU21623XXSP,2013-06-22 11:20:00,
2013-06-22 06:25:00,67.5,64.4,30.09,ENE,67,0.0,3.6,90,0.28,,,2.10,WUHU21623XXSP,2013-06-22 11:25:00,
2013-06-22 06:30:00,67.6,64.6,30.07,East,90,1.1,2.7,90,0.24,,,2.10,WUHU21623XXSP,2013-06-22 11:30:00,
2013-06-22 06:35:00,67.6,64.3,30.07,NE,45,0.0,1.1,89,0.24,,,2.10,WUHU21623XXSP,2013-06-22 11:35:00,
2013-06-22 06:40:00,67.5,64.1,30.06,SE,135,0.0,1.3,89,0.18,,,2.10,WUHU21623XXSP,2013-06-22 11:40:00,
2013-06-22 06:45:00,67.6,64.6,30.06,ENE,67,0.0,1.3,90,0.14,,,2.10,WUHU21623XXSP,2013-06-22 11:45:00,
2013-06-22 06:50:00,67.5,64.1,30.05,ESE,112,0.0,1.3,89,0.10,,,2.10,WUHU21623XXSP,2013-06-22 11:50:00,
2013-06-22 06:55:00,67.6,64.6,30.03,ENE,67,2.9,2.9,90,0.08,,,2.10,WUHU21623XXSP,2013-06-22 11:55:00,
2013-06-22 07:00:00,67.5,64.1,30.04,SSE,157,0.0,2.9,89,0.08,,,2.10,WUHU21623XXSP,2013-06-22 12:00:00,
2013-06-22 07:05:00,67.5,64.4,30.03,SE,135,0.0,0.0,90,0.08,,,2.10,WUHU21623XXSP,2013-06-22 12:05:00,
2013-06-22 07:10:00,67.6,64.6,30.03,ENE,67,0.0,0.0,90,0.04,,,2.10,WUHU21623XXSP,2013-06-22 12:10:00,
2013-06-22 07:15:00,68.0,64.9,30.03,ESE,112,1.1,1.1,90,0.02,,,2.10,WUHU21623XXSP,2013-06-22 12:15:00,
2013-06-22 07:20:00,68.2,65.1,30.03,ENE,67,1.8,4.7,90,0.02,,,2.10,WUHU21623XXSP,2013-06-22 12:20:00,
2013-06-22 07:25:00,68.4,65.3,30.02,NNE,22,1.8,4.7,90,0.00,,,2.10,WUHU21623XXSP,2013-06-22 12:25:00,
2013-06-22 07:30:00,68.5,65.8,30.01,ENE,67,3.4,3.4,91,0.00,,,2.10,WUHU21623XXSP,2013-06-22 12:30:00,
2013-06-22 07:35:00,68.9,66.1,30.02,ENE,67,6.0,6.0,91,0.00,,,2.10,WUHU21623XXSP,2013-06-22 12:35:00,
2013-06-22 07:40:00,69.6,66.6,30.03,East,90,1.8,6.0,90,0.00,,,2.10,WUHU21623XXSP,2013-06-22 12:40:00,
2013-06-22 07:45:00,70.0,66.6,30.02,SE,135,3.6,3.6,89,0.00,,,2.10,WUHU21623XXSP,2013-06-22 12:45:00,
2013-06-22 07:50:00,70.3,66.9,30.03,East,90,2.7,3.6,89,0.00,,,2.10,WUHU21623XXSP,2013-06-22 12:50:00,
2013-06-22 07:55:00,70.7,67.0,30.04,NE,45,0.0,2.7,88,0.00,,,2.10,WUHU21623XXSP,2013-06-22 12:55:00,
2013-06-22 08:00:00,70.7,66.3,30.05,SSE,157,2.2,2.2,86,0.00,,,2.10,WUHU21623XXSP,2013-06-22 13:00:00,
2013-06-22 08:05:00,70.7,65.6,30.06,SE,135,0.0,2.2,84,0.00,,,2.10,WUHU21623XXSP,2013-06-22 13:05:00,
2013-06-22 08:10:00,71.1,65.9,30.06,ESE,112,0.0,0.9,84,0.00,,,2.10,WUHU21623XXSP,2013-06-22 13:10:00,
2013-06-22 08:15:00,71.1,65.6,30.06,ESE,112,6.3,6.3,83,0.00,,,2.10,WUHU21623XXSP,2013-06-22 13:15:00,
2013-06-22 08:20:00,71.2,65.8,30.06,ESE,112,0.0,6.3,83,0.00,,,2.10,WUHU21623XXSP,2013-06-22 13:20:00,
2013-06-22 08:25:00,71.2,65.4,30.06,ESE,112,4.5,4.5,82,0.00,,,2.10,WUHU21623XXSP,2013-06-22 13:25:00,
2013-06-22 08:30:00,71.6,65.5,30.05,SE,135,2.7,4.5,81,0.00,,,2.10,WUHU21623XXSP,2013-06-22 13:30:00,
2013-06-22 08:35:00,72.0,65.5,30.05,ESE,112,0.0,2.9,80,0.00,,,2.10,WUHU21623XXSP,2013-06-22 13:35:00,
2013-06-22 08:40:00,72.1,65.7,30.06,ESE,112,0.0,0.7,80,0.00,,,2.10,WUHU21623XXSP,2013-06-22 13:40:00,
2013-06-22 08:45:00,72.1,65.3,30.06,SE,135,2.0,4.0,79,0.00,,,2.10,WUHU21623XXSP,2013-06-22 13:45:00,
2013-06-22 08:50:00,72.5,64.9,30.06,SE,135,0.9,4.0,77,0.00,,,2.10,WUHU21623XXSP,2013-06-22 13:50:00,
2013-06-22 08:55:00,72.9,64.9,30.06,East,90,3.6,3.6,76,0.00,,,2.10,WUHU21623XXSP,2013-06-22 13:55:00,
2013-06-22 09:00:00,72.9,64.5,30.07,SE,135,2.2,3.6,75,0.00,,,2.10,WUHU21623XXSP,2013-06-22 14:00:00,
2013-06-22 09:05:00,72.9,64.3,30.07,WNW,292,2.2,6.3,74,0.00,,,2.10,WUHU21623XXSP,2013-06-22 14:05:00,
2013-06-22 09:10:00,72.7,64.1,30.07,WNW,292,6.9,7.8,74,0.00,,,2.10,WUHU21623XXSP,2013-06-22 14:10:00,
2013-06-22 09:15:00,72.5,63.5,30.13,WSW,247,8.7,8.7,73,0.00,,,2.10,WUHU21623XXSP,2013-06-22 14:15:00,
2013-06-22 09:20:00,72.0,62.7,30.14,NW,315,0.0,8.7,72,0.00,,,2.10,WUHU21623XXSP,2013-06-22 14:20:00,
2013-06-22 09:25:00,71.8,62.3,30.14,NW,315,0.0,6.9,72,0.00,,,2.10,WUHU21623XXSP,2013-06-22 14:25:00,
2013-06-22 09:30:00,71.4,62.3,30.13,West,270,0.9,4.0,73,0.00,,,2.10,WUHU21623XXSP,2013-06-22 14:30:00,
2013-06-22 09:35:00,71.1,62.3,30.12,NNW,337,0.0,4.0,74,0.02,,,2.12,WUHU21623XXSP,2013-06-22 14:35:00,
2013-06-22 09:40:00,70.7,62.3,30.13,NNW,337,0.0,0.0,75,0.04,,,2.14,WUHU21623XXSP,2013-06-22 14:40:00,
2013-06-22 09:45:00,70.5,62.2,30.12,NNW,337,0.0,0.0,75,0.04,,,2.14,WUHU21623XXSP,2013-06-22 14:45:00,
2013-06-22 09:50:00,70.5,63.3,30.10,East,90,0.0,0.0,78,0.04,,,2.14,WUHU21623XXSP,2013-06-22 14:50:00,
2013-06-22 09:55:00,70.3,63.5,30.06,East,90,1.6,2.2,79,0.04,,,2.14,WUHU21623XXSP,2013-06-22 14:55:00,
2013-06-22 10:00:00,70.0,63.1,30.01,ESE,112,4.9,4.9,79,0.04,,,2.14,WUHU21623XXSP,2013-06-22 15:00:00,
2013-06-22 10:05:00,69.6,63.2,30.05,ENE,67,6.3,6.3,80,0.04,,,2.14,WUHU21623XXSP,2013-06-22 15:05:00,
2013-06-22 10:10:00,69.4,63.0,30.06,East,90,2.2,6.3,80,0.04,,,2.14,WUHU21623XXSP,2013-06-22 15:10:00,
2013-06-22 10:15:00,69.4,63.3,30.06,ENE,67,0.0,2.7,81,0.04,,,2.14,WUHU21623XXSP,2013-06-22 15:15:00,
2013-06-22 10:20:00,69.4,63.3,30.06,SSE,157,0.0,0.0,81,0.04,,,2.14,WUHU21623XXSP,2013-06-22 15:20:00,
2013-06-22 10:25:00,69.6,63.8,30.05,ENE,67,2.0,2.0,82,0.04,,,2.14,WUHU21623XXSP,2013-06-22 15:25:00,
2013-06-22 10:30:00,69.8,64.3,30.05,SE,135,0.0,2.0,83,0.02,,,2.14,WUHU21623XXSP,2013-06-22 15:30:00,
2013-06-22 10:35:00,70.2,64.7,30.05,ESE,112,1.1,1.1,83,0.02,,,2.14,WUHU21623XXSP,2013-06-22 15:35:00,
2013-06-22 10:40:00,70.3,64.9,30.05,ESE,112,0.0,1.1,83,0.00,,,2.14,WUHU21623XXSP,2013-06-22 15:40:00,
2013-06-22 10:45:00,70.5,65.1,30.05,ENE,67,2.2,2.2,83,0.00,,,2.14,WUHU21623XXSP,2013-06-22 15:45:00,
2013-06-22 10:50:00,71.1,64.9,30.04,ENE,67,0.0,2.2,81,0.00,,,2.14,WUHU21623XXSP,2013-06-22 15:50:00,
2013-06-22 10:55:00,71.2,65.1,30.04,ESE,112,0.0,0.0,81,0.00,,,2.14,WUHU21623XXSP,2013-06-22 15:55:00,
2013-06-22 11:00:00,71.8,65.6,30.04,SE,135,0.0,0.0,81,0.00,,,2.14,WUHU21623XXSP,2013-06-22 16:00:00,
2013-06-22 11:05:00,72.3,65.8,30.04,SSW,202,0.0,0.0,80,0.00,,,2.14,WUHU21623XXSP,2013-06-22 16:05:00,
2013-06-22 11:10:00,72.5,65.6,30.04,SSW,202,0.0,0.0,79,0.00,,,2.14,WUHU21623XXSP,2013-06-22 16:10:00,
2013-06-22 11:15:00,73.0,65.0,30.04,East,90,0.0,0.0,76,0.00,,,2.14,WUHU21623XXSP,2013-06-22 16:15:00,
2013-06-22 11:20:00,73.4,65.4,30.03,SE,135,0.0,0.0,76,0.00,,,2.14,WUHU21623XXSP,2013-06-22 16:20:00,
2013-06-22 11:25:00,73.8,65.8,30.02,SSW,202,0.0,0.0,76,0.00,,,2.14,WUHU21623XXSP,2013-06-22 16:25:00,
2013-06-22 11:30:00,74.1,65.3,30.02,SSW,202,0.0,0.0,74,0.00,,,2.14,WUHU21623XXSP,2013-06-22 16:30:00,
2013-06-22 11:35:00,74.7,65.0,30.02,South,180,0.0,0.0,72,0.00,,,2.14,WUHU21623XXSP,2013-06-22 16:35:00,
2013-06-22 11:40:00,74.8,64.8,30.02,SSE,157,0.0,1.8,71,0.00,,,2.14,WUHU21623XXSP,2013-06-22 16:40:00,
2013-06-22 11:45:00,75.6,65.1,30.02,South,180,0.4,2.5,70,0.00,,,2.14,WUHU21623XXSP,2013-06-22 16:45:00,
2013-06-22 11:50:00,76.1,65.2,30.02,ESE,112,1.1,3.4,69,0.00,,,2.14,WUHU21623XXSP,2013-06-22 16:50:00,
2013-06-22 11:55:00,76.5,65.1,30.02,SE,135,0.7,3.4,68,0.00,,,2.14,WUHU21623XXSP,2013-06-22 16:55:00,
2013-06-22 12:00:00,77.4,65.5,30.01,WSW,247,0.0,1.1,67,0.00,,,2.14,WUHU21623XXSP,2013-06-22 17:00:00,
2013-06-22 12:05:00,77.9,65.6,30.01,East,90,0.0,0.9,66,0.00,,,2.14,WUHU21623XXSP,2013-06-22 17:05:00,
2013-06-22 12:10:00,78.4,65.2,30.00,SSW,202,1.3,4.0,64,0.00,,,2.14,WUHU21623XXSP,2013-06-22 17:10:00,
2013-06-22 12:15:00,79.2,64.6,30.00,SSE,157,2.7,4.0,61,0.00,,,2.14,WUHU21623XXSP,2013-06-22 17:15:00,
2013-06-22 12:20:00,79.5,64.9,30.01,SE,135,1.8,2.7,61,0.00,,,2.14,WUHU21623XXSP,2013-06-22 17:20:00,
2013-06-22 12:25:00,80.1,64.5,30.01,SE,135,1.8,3.8,59,0.00,,,2.14,WUHU21623XXSP,2013-06-22 17:25:00,
2013-06-22 12:30:00,80.4,63.8,30.00,ESE,112,0.0,3.8,57,0.00,,,2.14,WUHU21623XXSP,2013-06-22 17:30:00,
2013-06-22 12:35:00,81.1,63.9,30.01,NE,45,0.0,3.8,56,0.00,,,2.14,WUHU21623XXSP,2013-06-22 17:35:00,
2013-06-22 12:40:00,81.5,63.7,30.01,SE,135,2.5,3.8,55,0.00,,,2.14,WUHU21623XXSP,2013-06-22 17:40:00,
2013-06-22 12:45:00,82.2,64.8,30.01,SE,135,1.6,2.5,56,0.00,,,2.14,WUHU21623XXSP,2013-06-22 17:45:00,
2013-06-22 12:50:00,82.2,63.8,30.01,SE,135,1.8,1.8,54,0.00,,,2.14,WUHU21623XXSP,2013-06-22 17:50:00,
2013-06-22 12:55:00,82.8,64.3,30.01,SSE,157,0.7,1.8,54,0.00,,,2.14,WUHU21623XXSP,2013-06-22 17:55:00,
2013-06-22 13:00:00,83.3,65.4,30.01,South,180,6.0,6.0,55,0.00,,,2.14,WUHU21623XXSP,2013-06-22 18:00:00,
2013-06-22 13:05:00,83.7,64.7,30.01,SE,135,1.3,6.0,53,0.00,,,2.14,WUHU21623XXSP,2013-06-22 18:05:00,
2013-06-22 13:10:00,84.0,64.0,30.01,South,180,0.0,3.6,51,0.00,,,2.14,WUHU21623XXSP,2013-06-22 18:10:00,
2013-06-22 13:15:00,84.7,64.7,30.01,ESE,112,0.0,3.6,51,0.00,,,2.14,WUHU21623XXSP,2013-06-22 18:15:00,
2013-06-22 13:20:00,84.9,64.8,30.01,SE,135,3.4,3.4,51,0.00,,,2.14,WUHU21623XXSP,2013-06-22 18:20:00,
2013-06-22 13:25:00,85.1,64.5,30.02,South,180,2.2,3.4,50,0.00,,,2.14,WUHU21623XXSP,2013-06-22 18:25:00,
2013-06-22 13:30:00,85.5,64.8,30.02,ESE,112,2.7,2.9,50,0.00,,,2.14,WUHU21623XXSP,2013-06-22 18:30:00,
2013-06-22 13:35:00,85.5,64.8,30.01,SE,135,0.9,2.9,50,0.00,,,2.14,WUHU21623XXSP,2013-06-22 18:35:00,
2013-06-22 13:40:00,86.0,64.7,30.01,ESE,112,0.0,1.1,49,0.00,,,2.14,WUHU21623XXSP,2013-06-22 18:40:00,
2013-06-22 13:45:00,86.4,65.0,30.00,SSE,157,3.4,8.3,49,0.00,,,2.14,WUHU21623XXSP,2013-06-22 18:45:00,
2013-06-22 13:50:00,86.4,65.0,30.00,SSE,157,4.3,8.3,49,0.00,,,2.14,WUHU21623XXSP,2013-06-22 18:50:00,
2013-06-22 13:55:00,86.2,64.8,30.00,ESE,112,4.3,4.3,49,0.00,,,2.14,WUHU21623XXSP,2013-06-22 18:55:00,
2013-06-22 14:00:00,86.2,65.5,30.00,SSE,157,2.9,4.3,50,0.00,,,2.14,WUHU21623XXSP,2013-06-22 19:00:00,
2013-06-22 14:05:00,85.8,65.3,30.00,ESE,112,3.6,3.6,50,0.00,,,2.14,WUHU21623XXSP,2013-06-22 19:05:00,
2013-06-22 14:10:00,86.2,66.5,29.99,ESE,112,1.6,3.6,52,0.00,,,2.14,WUHU21623XXSP,2013-06-22 19:10:00,
2013-06-22 14:15:00,86.0,66.9,29.99,SSE,157,2.9,2.9,53,0.00,,,2.14,WUHU21623XXSP,2013-06-22 19:15:00,
2013-06-22 14:20:00,85.6,67.1,29.99,SSE,157,0.4,3.6,54,0.00,,,2.14,WUHU21623XXSP,2013-06-22 19:20:00,
2013-06-22 14:25:00,85.8,68.3,29.99,SE,135,2.0,3.6,56,0.00,,,2.14,WUHU21623XXSP,2013-06-22 19:25:00,
2013-06-22 14:30:00,86.2,69.6,29.98,SSE,157,0.0,2.0,58,0.00,,,2.14,WUHU21623XXSP,2013-06-22 19:30:00,
2013-06-22 14:35:00,86.2,69.1,29.99,SE,135,2.0,2.0,57,0.00,,,2.14,WUHU21623XXSP,2013-06-22 19:35:00,
2013-06-22 14:40:00,86.2,69.1,29.98,East,90,2.0,2.0,57,0.00,,,2.14,WUHU21623XXSP,2013-06-22 19:40:00,
2013-06-22 14:45:00,86.2,69.1,29.98,South,180,0.0,3.4,57,0.00,,,2.14,WUHU21623XXSP,2013-06-22 19:45:00,
2013-06-22 14:50:00,86.4,69.3,29.98,SE,135,1.1,3.4,57,0.00,,,2.14,WUHU21623XXSP,2013-06-22 19:50:00,
2013-06-22 14:55:00,86.5,69.5,29.97,SSE,157,2.5,2.5,57,0.00,,,2.14,WUHU21623XXSP,2013-06-22 19:55:00,
2013-06-22 15:00:00,86.4,69.8,29.97,South,180,3.1,3.1,58,0.00,,,2.14,WUHU21623XXSP,2013-06-22 20:00:00,
2013-06-22 15:05:00,86.5,70.0,29.96,ESE,112,1.8,3.1,58,0.00,,,2.14,WUHU21623XXSP,2013-06-22 20:05:00,
2013-06-22 15:10:00,86.5,70.0,29.95,SE,135,1.3,5.1,58,0.00,,,2.14,WUHU21623XXSP,2013-06-22 20:10:00,
2013-06-22 15:15:00,86.5,70.5,29.94,SE,135,5.8,5.8,59,0.00,,,2.14,WUHU21623XXSP,2013-06-22 20:15:00,
2013-06-22 15:20:00,86.5,70.0,29.94,South,180,3.4,5.8,58,0.00,,,2.14,WUHU21623XXSP,2013-06-22 20:20:00,
2013-06-22 15:25:00,86.4,69.8,29.93,SE,135,1.6,4.0,58,0.00,,,2.14,WUHU21623XXSP,2013-06-22 20:25:00,
2013-06-22 15:30:00,86.4,69.8,29.93,SW,225,1.1,4.0,58,0.00,,,2.14,WUHU21623XXSP,2013-06-22 20:30:00,
2013-06-22 15:35:00,86.4,69.8,29.93,SSW,202,3.4,3.4,58,0.00,,,2.14,WUHU21623XXSP,2013-06-22 20:35:00,
2013-06-22 15:40:00,86.4,69.8,29.93,South,180,3.6,4.7,58,0.00,,,2.14,WUHU21623XXSP,2013-06-22 20:40:00,
2013-06-22 15:45:00,86.0,69.5,29.93,SSE,157,4.9,4.9,58,0.00,,,2.14,WUHU21623XXSP,2013-06-22 20:45:00,
2013-06-22 15:50:00,85.8,69.8,29.93,East,90,3.8,4.9,59,0.00,,,2.14,WUHU21623XXSP,2013-06-22 20:50:00,
2013-06-22 15:55:00,85.5,69.0,29.93,SSW,202,1.3,4.9,58,0.00,,,2.14,WUHU21623XXSP,2013-06-22 20:55:00,
2013-06-22 16:00:00,85.5,69.5,29.92,SE,135,1.6,4.9,59,0.00,,,2.14,WUHU21623XXSP,2013-06-22 21:00:00,
2013-06-22 16:05:00,85.1,69.7,29.92,SE,135,2.2,3.6,60,0.00,,,2.14,WUHU21623XXSP,2013-06-22 21:05:00,
2013-06-22 16:10:00,85.1,70.2,29.93,SE,135,1.1,3.6,61,0.00,,,2.14,WUHU21623XXSP,2013-06-22 21:10:00,
2013-06-22 16:15:00,85.1,70.2,29.93,SE,135,0.4,2.5,61,0.00,,,2.14,WUHU21623XXSP,2013-06-22 21:15:00,
2013-06-22 16:20:00,85.1,69.7,29.93,SE,135,4.9,4.9,60,0.00,,,2.14,WUHU21623XXSP,2013-06-22 21:20:00,
2013-06-22 16:25:00,85.1,70.2,29.93,ESE,112,2.7,6.0,61,0.00,,,2.14,WUHU21623XXSP,2013-06-22 21:25:00,
2013-06-22 16:30:00,84.9,70.0,29.93,SE,135,2.2,6.0,61,0.00,,,2.14,WUHU21623XXSP,2013-06-22 21:30:00,
2013-06-22 16:35:00,84.4,70.1,29.93,SE,135,1.8,3.1,63,0.00,,,2.14,WUHU21623XXSP,2013-06-22 21:35:00,
2013-06-22 16:40:00,84.4,70.4,29.93,SE,135,0.4,2.2,63,0.00,,,2.14,WUHU21623XXSP,2013-06-22 21:40:00,
2013-06-22 16:45:00,84.0,70.5,29.93,SSE,157,1.8,2.0,64,0.00,,,2.14,WUHU21623XXSP,2013-06-22 21:45:00,
2013-06-22 16:50:00,84.2,71.2,29.94,SE,135,1.1,2.0,65,0.00,,,2.14,WUHU21623XXSP,2013-06-22 21:50:00,
2013-06-22 16:55:00,84.2,71.2,29.93,South,180,6.5,6.5,65,0.00,,,2.14,WUHU21623XXSP,2013-06-22 21:55:00,
2013-06-22 17:00:00,84.2,71.2,29.93,SSE,157,0.0,6.5,65,0.00,,,2.14,WUHU21623XXSP,2013-06-22 22:00:00,
2013-06-22 17:05:00,83.8,71.2,29.93,SSE,157,2.7,2.7,66,0.00,,,2.14,WUHU21623XXSP,2013-06-22 22:05:00,
2013-06-22 17:10:00,83.5,70.9,29.93,SW,225,0.0,5.8,66,0.00,,,2.14,WUHU21623XXSP,2013-06-22 22:10:00,
2013-06-22 17:15:00,83.1,71.0,29.93,SSE,157,0.0,5.8,67,0.00,,,2.14,WUHU21623XXSP,2013-06-22 22:15:00,
2013-06-22 17:20:00,82.9,71.7,29.93,WSW,247,3.6,4.7,69,0.00,,,2.14,WUHU21623XXSP,2013-06-22 22:20:00,
2013-06-22 17:25:00,82.9,71.7,29.92,SSE,157,0.7,4.7,69,0.00,,,2.14,WUHU21623XXSP,2013-06-22 22:25:00,
2013-06-22 17:30:00,82.8,71.5,29.93,North,0,1.8,2.9,69,0.00,,,2.14,WUHU21623XXSP,2013-06-22 22:30:00,
2013-06-22 17:35:00,82.8,71.5,29.93,South,180,0.9,4.3,69,0.00,,,2.14,WUHU21623XXSP,2013-06-22 22:35:00,
2013-06-22 17:40:00,82.9,71.7,29.93,South,180,0.2,8.7,69,0.00,,,2.14,WUHU21623XXSP,2013-06-22 22:40:00,
2013-06-22 17:45:00,82.6,71.8,29.93,East,90,2.9,8.7,70,0.00,,,2.14,WUHU21623XXSP,2013-06-22 22:45:00,
2013-06-22 17:50:00,82.6,71.8,29.94,SSW,202,0.0,2.9,70,0.00,,,2.14,WUHU21623XXSP,2013-06-22 22:50:00,
2013-06-22 17:55:00,82.4,71.2,29.94,SSW,202,2.7,2.7,69,0.00,,,2.14,WUHU21623XXSP,2013-06-22 22:55:00,
2013-06-22 18:00:00,82.4,71.2,29.94,SSE,157,2.2,2.7,69,0.00,,,2.14,WUHU21623XXSP,2013-06-22 23:00:00,
2013-06-22 18:05:00,81.9,71.1,29.94,SSE,157,0.7,2.5,70,0.00,,,2.14,WUHU21623XXSP,2013-06-22 23:05:00,
2013-06-22 18:10:00,81.9,71.1,29.93,SSE,157,0.0,0.7,70,0.00,,,2.14,WUHU21623XXSP,2013-06-22 23:10:00,
2013-06-22 18:15:00,81.9,71.1,29.93,ESE,112,0.0,0.0,70,0.00,,,2.14,WUHU21623XXSP,2013-06-22 23:15:00,
2013-06-22 18:20:00,81.7,71.3,29.93,SE,135,1.3,1.6,71,0.00,,,2.14,WUHU21623XXSP,2013-06-22 23:20:00,
2013-06-22 18:25:00,81.7,71.3,29.93,SE,135,0.0,1.6,71,0.00,,,2.14,WUHU21623XXSP,2013-06-22 23:25:00,
2013-06-22 18:30:00,81.3,71.0,29.93,SSE,157,0.0,1.8,71,0.00,,,2.14,WUHU21623XXSP,2013-06-22 23:30:00,
2013-06-22 18:35:00,81.3,71.0,29.93,SW,225,0.0,5.6,71,0.00,,,2.14,WUHU21623XXSP,2013-06-22 23:35:00,
2013-06-22 18:40:00,81.1,70.9,29.93,SW,225,0.0,5.6,71,0.00,,,2.14,WUHU21623XXSP,2013-06-22 23:40:00,
2013-06-22 18:45:00,81.0,70.7,29.93,SSE,157,1.6,3.4,71,0.00,,,2.14,WUHU21623XXSP,2013-06-22 23:45:00,
2013-06-22 18:50:00,80.8,70.5,29.92,ESE,112,1.1,1.6,71,0.00,,,2.14,WUHU21623XXSP,2013-06-22 23:50:00,
2013-06-22 18:55:00,80.6,70.4,29.93,SSE,157,1.8,3.4,71,0.00,,,2.14,WUHU21623XXSP,2013-06-22 23:55:00,
2013-06-22 19:00:00,80.4,70.2,29.93,SSE,157,1.3,3.6,71,0.00,,,2.14,WUHU21623XXSP,2013-06-23 00:00:00,
2013-06-22 19:05:00,80.2,69.6,29.92,SSW,202,1.8,3.6,70,0.00,,,2.14,WUHU21623XXSP,2013-06-23 00:05:00,
2013-06-22 19:10:00,80.2,69.6,29.92,SW,225,0.0,1.8,70,0.00,,,2.14,WUHU21623XXSP,2013-06-23 00:10:00,
2013-06-22 19:15:00,80.1,69.4,29.93,NW,315,1.8,2.7,70,0.00,,,2.14,WUHU21623XXSP,2013-06-23 00:15:00,
2013-06-22 19:20:00,80.1,69.4,29.92,SW,225,0.7,2.7,70,0.00,,,2.14,WUHU21623XXSP,2013-06-23 00:20:00,
2013-06-22 19:25:00,79.7,68.6,29.92,South,180,3.6,3.6,69,0.00,,,2.14,WUHU21623XXSP,2013-06-23 00:25:00,
2013-06-22 19:30:00,79.7,68.6,29.92,South,180,0.0,3.6,69,0.00,,,2.14,WUHU21623XXSP,2013-06-23 00:30:00,
2013-06-22 19:35:00,79.5,68.6,29.93,WSW,247,0.0,0.9,69,0.00,,,2.14,WUHU21623XXSP,2013-06-23 00:35:00,
2013-06-22 19:40:00,79.5,68.5,29.93,South,180,0.0,0.7,69,0.00,,,2.14,WUHU21623XXSP,2013-06-23 00:40:00,
2013-06-22 19:45:00,79.2,68.9,29.93,SE,135,0.0,1.3,71,0.00,,,2.14,WUHU21623XXSP,2013-06-23 00:45:00,
2013-06-22 19:50:00,79.2,68.9,29.93,SE,135,1.8,2.5,71,0.00,,,2.14,WUHU21623XXSP,2013-06-23 00:50:00,
2013-06-22 19:55:00,79.2,68.9,29.93,SSE,157,0.4,2.5,71,0.00,,,2.14,WUHU21623XXSP,2013-06-23 00:55:00,
2013-06-22 20:00:00,79.0,68.8,29.93,South,180,3.6,3.6,71,0.00,,,2.14,WUHU21623XXSP,2013-06-23 01:00:00,
2013-06-22 20:05:00,79.0,68.8,29.94,ESE,112,0.0,3.6,71,0.00,,,2.14,WUHU21623XXSP,2013-06-23 01:05:00,
2013-06-22 20:10:00,78.4,68.2,29.94,WNW,292,0.0,1.6,71,0.00,,,2.14,WUHU21623XXSP,2013-06-23 01:10:00,
2013-06-22 20:15:00,78.4,68.2,29.93,South,180,2.7,2.7,71,0.00,,,2.14,WUHU21623XXSP,2013-06-23 01:15:00,
2013-06-22 20:20:00,78.3,68.1,29.94,SSE,157,0.4,2.7,71,0.00,,,2.14,WUHU21623XXSP,2013-06-23 01:20:00,
2013-06-22 20:25:00,78.3,68.1,29.94,SSW,202,0.0,1.1,71,0.00,,,2.14,WUHU21623XXSP,2013-06-23 01:25:00,
2013-06-22 20:30:00,77.9,67.7,29.94,SSE,157,0.0,0.0,71,0.00,,,2.14,WUHU21623XXSP,2013-06-23 01:30:00,
2013-06-22 20:35:00,77.7,68.0,29.94,West,270,0.0,2.0,72,0.00,,,2.14,WUHU21623XXSP,2013-06-23 01:35:00,
2013-06-22 20:40:00,77.5,67.8,29.94,South,180,0.0,3.1,72,0.00,,,2.14,WUHU21623XXSP,2013-06-23 01:40:00,
2013-06-22 20:45:00,77.4,67.6,29.94,South,180,1.3,4.7,72,0.00,,,2.14,WUHU21623XXSP,2013-06-23 01:45:00,
2013-06-22 20:50:00,77.2,67.5,29.94,ESE,112,0.0,4.7,72,0.00,,,2.14,WUHU21623XXSP,2013-06-23 01:50:00,
2013-06-22 20:55:00,77.0,67.3,29.94,SW,225,0.0,2.2,72,0.00,,,2.14,WUHU21623XXSP,2013-06-23 01:55:00,
2013-06-22 21:00:00,76.6,67.0,29.94,SSE,157,2.2,2.2,72,0.00,,,2.14,WUHU21623XXSP,2013-06-23 02:00:00,
2013-06-22 21:05:00,76.5,66.8,29.94,SSE,157,0.9,2.2,72,0.00,,,2.14,WUHU21623XXSP,2013-06-23 02:05:00,
2013-06-22 21:10:00,76.3,67.0,29.94,South,180,0.0,1.3,73,0.00,,,2.14,WUHU21623XXSP,2013-06-23 02:10:00,
2013-06-22 21:15:00,76.1,66.8,29.95,SSW,202,4.0,4.0,73,0.00,,,2.14,WUHU21623XXSP,2013-06-23 02:15:00,
2013-06-22 21:20:00,76.1,66.8,29.95,SSE,157,2.5,4.0,73,0.00,,,2.14,WUHU21623XXSP,2013-06-23 02:20:00,
2013-06-22 21:25:00,75.7,67.2,29.95,South,180,0.9,2.5,75,0.00,,,2.14,WUHU21623XXSP,2013-06-23 02:25:00,
2013-06-22 21:30:00,75.6,67.1,29.96,South,180,0.0,0.9,75,0.00,,,2.14,WUHU21623XXSP,2013-06-23 02:30:00,
2013-06-22 21:35:00,75.6,67.1,29.96,WSW,247,0.0,0.9,75,0.00,,,2.14,WUHU21623XXSP,2013-06-23 02:35:00,
2013-06-22 21:40:00,75.4,66.9,29.96,SSE,157,0.0,3.4,75,0.00,,,2.14,WUHU21623XXSP,2013-06-23 02:40:00,
2013-06-22 21:45:00,75.0,66.6,29.96,South,180,0.0,3.4,75,0.00,,,2.14,WUHU21623XXSP,2013-06-23 02:45:00,
2013-06-22 21:50:00,75.0,66.6,29.97,SSE,157,0.0,0.0,75,0.00,,,2.14,WUHU21623XXSP,2013-06-23 02:50:00,
2013-06-22 21:55:00,75.0,67.0,29.97,SSE,157,0.2,2.2,76,0.00,,,2.14,WUHU21623XXSP,2013-06-23 02:55:00,
2013-06-22 22:00:00,74.8,66.8,29.97,SSE,157,0.0,2.2,76,0.00,,,2.14,WUHU21623XXSP,2013-06-23 03:00:00,
2013-06-22 22:05:00,74.7,66.6,29.96,ESE,112,0.0,0.0,76,0.00,,,2.14,WUHU21623XXSP,2013-06-23 03:05:00,
2013-06-22 22:10:00,74.5,66.4,29.96,SSE,157,0.0,0.9,76,0.00,,,2.14,WUHU21623XXSP,2013-06-23 03:10:00,
2013-06-22 22:15:00,74.3,66.3,29.97,South,180,1.6,1.6,76,0.00,,,2.14,WUHU21623XXSP,2013-06-23 03:15:00,
2013-06-22 22:20:00,74.3,66.3,29.97,South,180,1.3,2.0,76,0.00,,,2.14,WUHU21623XXSP,2013-06-23 03:20:00,
2013-06-22 22:25:00,74.1,66.5,29.98,SSW,202,0.0,2.0,77,0.00,,,2.14,WUHU21623XXSP,2013-06-23 03:25:00,
2013-06-22 22:30:00,73.9,66.3,29.97,South,180,0.0,1.6,77,0.00,,,2.14,WUHU21623XXSP,2013-06-23 03:30:00,
2013-06-22 22:35:00,73.9,66.3,29.98,South,180,0.0,1.6,77,0.00,,,2.14,WUHU21623XXSP,2013-06-23 03:35:00,
2013-06-22 22:40:00,73.8,66.1,29.98,South,180,0.0,0.9,77,0.00,,,2.14,WUHU21623XXSP,2013-06-23 03:40:00,
2013-06-22 22:45:00,73.6,65.9,29.98,South,180,0.0,0.0,77,0.00,,,2.14,WUHU21623XXSP,2013-06-23 03:45:00,
2013-06-22 22:50:00,73.4,66.2,29.98,SSW,202,0.0,0.0,78,0.00,,,2.14,WUHU21623XXSP,2013-06-23 03:50:00,
2013-06-22 22:55:00,73.4,66.2,29.99,South,180,0.0,0.0,78,0.00,,,2.14,WUHU21623XXSP,2013-06-23 03:55:00,
2013-06-22 23:00:00,73.2,66.0,29.99,East,90,0.0,0.2,78,0.00,,,2.14,WUHU21623XXSP,2013-06-23 04:00:00,
2013-06-22 23:01:00,73.2,66.0,29.99,East,90,0.0,0.2,78,0.00,,,2.14,WUHU21623XXSP,2013-06-23 04:01:00,
2013-06-22 23:06:00,73.0,65.8,29.99,SSE,157,0.0,0.2,78,0.00,,,2.14,WUHU21623XXSP,2013-06-23 04:06:00,
2013-06-22 23:11:00,73.0,65.8,29.99,SSW,202,0.0,1.8,78,0.00,,,2.14,WUHU21623XXSP,2013-06-23 04:11:00,
2013-06-22 23:16:00,72.9,65.6,29.99,South,180,0.0,1.8,78,0.00,,,2.14,WUHU21623XXSP,2013-06-23 04:16:00,
2013-06-22 23:21:00,72.9,65.6,29.99,SE,135,0.4,1.3,78,0.00,,,2.14,WUHU21623XXSP,2013-06-23 04:21:00,
2013-06-22 23:26:00,72.9,65.6,29.99,SSW,202,1.8,1.8,78,0.00,,,2.14,WUHU21623XXSP,2013-06-23 04:26:00,
2013-06-22 23:31:00,72.7,65.4,30.00,East,90,0.0,1.8,78,0.00,,,2.14,WUHU21623XXSP,2013-06-23 04:31:00,
2013-06-22 23:36:00,72.7,65.4,30.00,SSE,157,0.9,0.9,78,0.00,,,2.14,WUHU21623XXSP,2013-06-23 04:36:00,
2013-06-22 23:41:00,72.5,65.3,30.00,South,180,0.0,0.9,78,0.00,,,2.14,WUHU21623XXSP,2013-06-23 04:41:00,
2013-06-22 23:46:00,72.5,65.6,30.01,SSW,202,0.0,0.0,79,0.00,,,2.14,WUHU21623XXSP,2013-06-23 04:46:00,
2013-06-22 23:51:00,72.3,65.5,30.01,SSE,157,0.0,0.9,79,0.00,,,2.14,WUHU21623XXSP,2013-06-23 04:51:00,
2013-06-22 23:56:00,72.3,65.5,30.00,South,180,0.0,0.9,79,0.00,,,2.14,WUHU21623XXSP,2013-06-23 04:56:00,